Location: Saint-Palais-sur-Mer
(45.6429°N, 1.0859°W)
Time: 20:21:11
(UTC+02:00)

QB50P2 - Visible Passes

Search period start: 22 April 2024 00:00
Search period end: 02 May 2024 00:00
Orbit: 568 x 581 km, 98.0° (Epoch: 21 April)

Date Brightness Start Highest point End Pass type
(mag) Time Alt. Az. Time Alt. Az. Time Alt. Az.
22 Apr ? 04:21:59 10° NNE 04:25:59 47° E 04:26:35 43° SE visible
22 Apr ? 05:58:04 10° NNW 06:00:49 18° WNW 06:02:49 13° W visible
23 Apr ? 04:25:16 10° NNE 04:29:18 51° E 04:30:02 45° SE visible
23 Apr ? 06:01:30 10° NNW 06:04:07 17° WNW 06:06:16 12° W visible
24 Apr ? 04:28:32 10° NNE 04:32:36 55° E 04:33:28 45° SE visible
24 Apr ? 06:04:55 10° NNW 06:07:21 15° WNW 06:09:41 10° W visible
25 Apr ? 04:31:46 10° NNE 04:35:51 60° E 04:36:51 45° SSE visible
25 Apr ? 06:08:19 10° NNW 06:10:34 14° WNW 06:12:50 10° W visible
26 Apr ? 04:34:58 10° NNE 04:39:05 65° ESE 04:40:13 44° SSE visible
26 Apr ? 06:11:42 10° NNW 06:13:45 14° WNW 06:15:49 10° W visible
27 Apr ? 04:38:09 10° NNE 04:42:17 71° ESE 04:43:32 43° S visible
27 Apr ? 06:15:05 10° NNW 06:16:55 13° WNW 06:18:44 10° W visible
28 Apr ? 04:41:18 10° NNE 04:45:27 77° ESE 04:46:49 41° S visible
28 Apr ? 06:18:28 10° NW 06:20:02 12° WNW 06:21:35 10° W visible
29 Apr ? 04:44:26 10° NNE 04:48:35 83° ESE 04:50:05 39° S visible
29 Apr ? 06:21:54 10° NW 06:23:07 11° WNW 06:24:20 10° WNW visible
30 Apr ? 04:47:31 10° NNE 04:51:40 89° E 04:53:18 36° SSW visible
01 May ? 04:50:36 10° NNE 04:54:44 86° WNW 04:56:29 34° SSW visible
